Location: Oberkirch
(48.5323°N, 8.0787°E)
Time: 14:22:10
(UTC+00:00)

S-56A Canister/Altair - Pass Details

Date: 18 February 2026
Orbit: 633 x 2484 km, 38.9° (Epoch: 7 March)

Event Time Altitude Azimuth Distance (km) Brightness Sun altitude
Exits shadow 00:57:57 12° 107° (ESE) 3,844 11.1 -49.9°
Drops below altitude 10° 00:58:32 10° 106° (ESE) 4,025 11.2 -49.8°
Sets 01:02:39 0° 101° (E) 5,316 12.0 -49.5°
